K1ABC Weather Reports


time (UTC)temp
C
wind
direction
speed
KPH
gust
KPH
rain 1hr
cm
rain 24hr
cm
rain mn
cm
humidity
%
barometer
mb
20260507075906 10 273 1.6 11.3 0.00 0.61 0.00 85 1006.4
20260507075707 10 300 1.6 11.3 0.00 0.61 0.00 85 1006.4
20260507075459 10 259 3.2 12.9 0.00 0.61 0.00 85 1006.4
20260507075255 10 290 3.2 12.9 0.00 0.61 0.00 85 1006.4
20260507075048 10 254 3.2 12.9 0.00 0.61 0.00 84 1006.3
20260507074843 10 273 3.2 12.9 0.00 0.61 0.00 84 1006.2
20260507074638 10 321 3.2 12.9 0.00 0.61 0.00 85 1006.0
20260507074317 10 262 1.6 12.9 0.00 0.61 0.00 85 1005.9
20260507074002 10 313 3.2 12.9 0.00 0.61 0.00 85 1005.8
20260507073753 10 256 1.6 12.9 0.00 0.61 0.00 85 1006.0
20260507073548 10 309 1.6 11.3 0.00 0.61 0.00 85 1006.0
20260507073345 10 253 1.6 11.3 0.00 0.61 0.00 85 1006.0
20260507073141 10 320 1.6 11.3 0.00 0.61 0.00 86 1006.0
20260507072936 10 288 1.6 11.3 0.00 0.61 0.00 85 1005.9
20260507072727 10 211 1.6 11.3 0.00 0.61 0.00 85 1005.7
20260507072528 10 21 1.6 11.3 0.00 0.61 0.00 85 1005.8
20260507072324 10 232 1.6 11.3 0.00 0.61 0.00 85 1005.8
20260507072124 10 287 1.6 14.5 0.00 0.61 0.00 86 1005.8
20260507071924 10 288 1.6 14.5 0.00 0.61 0.00 85 1005.9
20260507071719 10 190 1.6 14.5 0.00 0.61 0.00 86 1006.0
20260507071511 10 331 3.2 14.5 0.00 0.61 0.00 86 1005.9
20260507071149 10 276 3.2 14.5 0.00 0.61 0.00 85 1006.1
20260507070828 10 233 3.2 14.5 0.00 0.61 0.00 85 1006.1
20260507070629 10 233 3.2 14.5 0.00 0.61 0.00 85 1006.0
20260507070426 10 250 3.2 14.5 0.00 0.61 0.00 85 1005.8
20260507070218 10 242 3.2 14.5 0.00 0.61 0.00 85 1005.7
20260507070016 10 214 3.2 16.1 0.00 0.61 0.00 86 1005.6
20260507065815 10 214 4.8 16.1 0.00 0.61 0.00 85 1005.7
20260507065615 10 309 3.2 16.1 0.00 0.61 0.00 85 1005.6
20260507065413 10 5 3.2 16.1 0.00 0.61 0.00 85 1005.7
20260507065204 10 207 3.2 16.1 0.00 0.61 0.00 86 1005.8
20260507065003 10 277 3.2 16.1 0.00 0.61 0.00 86 1005.9
20260507064757 10 241 3.2 16.1 0.00 0.61 0.00 86 1005.9
20260507064548 10 254 3.2 16.1 0.00 0.61 0.00 86 1005.8
20260507064340 10 263 3.2 16.1 0.00 0.61 0.00 87 1005.7
20260507064026 10 307 1.6 11.3 0.00 0.61 0.00 86 1005.5
20260507063815 10 284 1.6 11.3 0.00 0.61 0.00 86 1005.5
20260507063459 10 59 1.6 8.0 0.00 0.61 0.00 86 1005.5
20260507063259 11 131 1.6 8.0 0.00 0.61 0.00 86 1005.6
20260507063055 11 206 1.6 8.0 0.00 0.61 0.00 86 1005.6
20260507062850 11 252 1.6 8.0 0.00 0.61 0.00 86 1005.4
20260507062645 11 284 1.6 9.7 0.00 0.61 0.00 86 1005.4
20260507062441 11 290 1.6 9.7 0.00 0.61 0.00 85 1005.6
20260507062125 11 286 1.6 9.7 0.00 0.61 0.00 86 1005.6
20260507061803 11 174 1.6 14.5 0.00 0.61 0.00 85 1005.5
20260507061447 11 281 1.6 14.5 0.00 0.61 0.00 84 1005.5
20260507061248 11 227 1.6 14.5 0.00 0.61 0.00 84 1005.6
20260507061039 11 347 1.6 14.5 0.00 0.61 0.00 85 1005.6
20260507060834 11 243 1.6 14.5 0.00 0.61 0.00 84 1005.6
20260507060514 11 266 1.6 14.5 0.00 0.61 0.00 85 1005.6
20260507060307 11 273 3.2 14.5 0.00 0.61 0.00 85 1005.6
20260507060057 11 191 3.2 14.5 0.00 0.61 0.00 85 1005.6
20260507055858 11 248 3.2 14.5 0.00 0.61 0.00 84 1005.7
20260507055650 11 240 3.2 11.3 0.00 0.61 0.00 84 1005.6
20260507055452 11 236 3.2 11.3 0.00 0.61 0.00 85 1005.9
20260507055131 11 298 3.2 11.3 0.00 0.61 0.00 85 1005.9
20260507054924 11 220 3.2 8.0 0.00 0.61 0.00 85 1006.0
20260507054718 11 246 3.2 6.4 0.00 0.61 0.00 85 1006.0
20260507054400 11 298 1.6 6.4 0.00 0.61 0.00 85 1006.0
20260507054159 11 269 1.6 9.7 0.00 0.61 0.00 85 1005.9
20260507053955 11 261 1.6 9.7 0.00 0.61 0.00 86 1006.0
20260507053746 11 263 3.2 9.7 0.00 0.61 0.00 85 1005.9
20260507053544 11 289 3.2 9.7 0.00 0.61 0.00 85 1005.9
20260507053345 11 220 3.2 9.7 0.00 0.61 0.00 85 1005.8
20260507053139 11 217 3.2 9.7 0.00 0.61 0.00 86 1005.9
20260507052823 11 269 3.2 9.7 0.00 0.61 0.00 86 1006.0
20260507052616 11 267 3.2 9.7 0.00 0.61 0.00 86 1006.1
20260507052253 11 254 3.2 8.0 0.00 0.61 0.00 86 1005.9
20260507051933 11 275 3.2 8.0 0.00 0.61 0.00 86 1005.9
20260507051725 11 334 1.6 6.4 0.00 0.61 0.00 86 1005.9
20260507051526 11 281 1.6 12.9 0.00 0.61 0.00 86 1005.8
20260507051320 11 257 3.2 12.9 0.00 0.61 0.00 86 1005.7
20260507051001 11 205 3.2 12.9 0.00 0.61 0.00 86 1005.6
20260507050802 11 205 3.2 12.9 0.00 0.61 0.00 85 1005.6
20260507050603 11 265 3.2 16.1 0.00 0.61 0.00 86 1005.7
20260507050404 11 191 1.6 16.1 0.00 0.61 0.00 86 1005.8
20260507050044 11 191 3.2 16.1 0.00 0.61 0.00 86 1005.8
20260507045834 11 281 3.2 16.1 0.00 0.61 0.00 86 1005.8
20260507045630 11 225 3.2 16.1 0.00 0.61 0.00 86 1005.7
20260507045423 11 213 3.2 16.1 0.00 0.61 0.00 87 1005.7
20260507045219 12 278 3.2 16.1 0.00 0.61 0.00 86 1005.7
20260507045018 12 276 3.2 16.1 0.00 0.61 0.00 87 1005.6
20260507044815 12 272 3.2 16.1 0.00 0.61 0.00 86 1005.6
20260507044454 12 318 1.6 11.3 0.00 0.61 0.00 87 1005.6
20260507044249 12 305 1.6 11.3 0.00 0.61 0.00 87 1005.6
20260507044049 12 271 1.6 11.3 0.00 0.61 0.00 87 1005.6
20260507043734 12 257 1.6 11.3 0.00 0.61 0.00 87 1005.6
20260507043534 12 232 1.6 19.3 0.00 0.61 0.00 87 1005.7
20260507043330 12 316 1.6 19.3 0.00 0.61 0.00 86 1005.7
20260507043009 12 275 1.6 19.3 0.00 0.61 0.00 87 1005.8
20260507042651 12 260 1.6 19.3 0.00 0.61 0.00 87 1005.9
20260507042443 12 252 3.2 19.3 0.00 0.61 0.00 87 1005.9
20260507042238 12 252 3.2 19.3 0.00 0.61 0.00 86 1005.9
20260507042032 12 240 4.8 19.3 0.00 0.61 0.00 86 1005.9
20260507041828 12 290 4.8 19.3 0.00 0.61 0.00 86 1005.8
20260507041626 12 238 4.8 19.3 0.00 0.61 0.00 86 1005.8
20260507041417 13 231 3.2 16.1 0.00 0.61 0.00 87 1005.8
20260507041206 13 297 4.8 12.9 0.00 0.61 0.00 87 1005.7
20260507041001 13 192 4.8 16.1 0.00 0.61 0.00 87 1005.6
20260507040753 13 298 3.2 16.1 0.00 0.61 0.00 86 1005.6
20260507040544 13 286 3.2 16.1 0.00 0.61 0.00 87 1005.5
20260507040341 13 266 3.2 16.1 0.00 0.61 0.00 88 1005.4
20260507040138 13 271 3.2 16.1 0.00 0.61 0.00 88 1005.4
20260507035937 13 265 3.2 16.1 0.00 0.61 0.64 89 1005.4
20260507035733 13 223 3.2 16.1 0.00 0.61 0.64 89 1005.4
20260507035529 13 270 1.6 16.1 0.00 0.61 0.64 89 1005.3
20260507035321 13 335 1.6 16.1 0.00 0.61 0.64 89 1005.3
20260507035112 13 0 1.6 14.5 0.00 0.61 0.61 90 1005.3
20260507034908 13 244 1.6 14.5 0.00 0.61 0.61 90 1005.1
20260507034547 14 253 1.6 14.5 0.00 0.61 0.61 90 1005.1
20260507034341 14 323 3.2 14.5 0.00 0.61 0.61 90 1005.1
20260507034019 14 206 3.2 11.3 0.00 0.61 0.61 90 1005.0
20260507033814 14 229 3.2 11.3 0.00 0.61 0.61 91 1005.1
20260507033613 14 267 3.2 12.9 0.00 0.61 0.61 91 1005.0
20260507033407 14 326 3.2 12.9 0.00 0.61 0.61 91 1004.9
20260507033208 14 42 3.2 12.9 0.00 0.61 0.61 90 1004.8
20260507033009 14 281 3.2 12.9 0.00 0.61 0.61 90 1004.9
20260507032806 14 246 3.2 12.9 0.00 0.61 0.61 90 1004.9
20260507032556 15 144 3.2 12.9 0.00 0.61 0.61 90 1005.0
20260507032356 15 0 3.2 12.9 0.00 0.61 0.61 90 1005.0
20260507032146 15 198 3.2 12.9 0.00 0.61 0.61 90 1004.9
20260507031940 15 200 3.2 12.9 0.00 0.61 0.61 91 1004.8
20260507031738 15 224 3.2 12.9 0.00 0.61 0.61 92 1004.8
20260507031529 15 257 3.2 9.7 0.00 0.61 0.61 92 1005.0
20260507031210 15 259 3.2 9.7 0.00 0.61 0.61 92 1004.8
20260507031006 15 249 3.2 6.4 0.00 0.61 0.61 92 1004.6
20260507030756 15 248 3.2 6.4 0.00 0.61 0.61 92 1004.5
20260507030547 15 229 3.2 6.4 0.00 0.61 0.61 92 1004.5
20260507030347 15 242 3.2 6.4 0.00 0.61 0.61 92 1004.5
20260507030143 15 235 3.2 6.4 0.00 0.61 0.61 92 1004.4
20260507025934 15 235 3.2 6.4 0.00 0.61 0.61 92 1004.4
20260507025729 15 234 3.2 6.4 0.00 0.61 0.61 92 1004.4
20260507025520 15 229 3.2 6.4 0.00 0.61 0.61 92 1004.4
20260507025318 15 193 3.2 6.4 0.00 0.61 0.61 92 1004.5
20260507025108 15 224 3.2 6.4 0.00 0.61 0.61 92 1004.4
20260507024904 15 224 3.2 6.4 0.00 0.61 0.61 92 1004.4
20260507024702 15 211 3.2 4.8 0.00 0.61 0.61 92 1004.4
20260507024501 15 236 3.2 4.8 0.00 0.61 0.61 92 1004.4
20260507024302 15 220 3.2 9.7 0.00 0.61 0.61 92 1004.5
20260507024101 15 220 3.2 9.7 0.00 0.61 0.61 92 1004.4
20260507023857 15 223 3.2 9.7 0.00 0.61 0.61 92 1004.4
20260507023533 15 225 3.2 9.7 0.00 0.61 0.61 92 1004.3
20260507023213 15 207 3.2 9.7 0.00 0.61 0.61 92 1004.4
20260507023006 15 226 3.2 9.7 0.00 0.61 0.61 92 1004.5
20260507022807 15 225 3.2 9.7 0.00 0.61 0.61 92 1004.5
20260507022606 15 229 3.2 9.7 0.00 0.61 0.61 92 1004.4
20260507022407 15 240 1.6 8.0 0.00 0.61 0.61 92 1004.4
20260507022203 15 240 3.2 8.0 0.00 0.61 0.61 92 1004.4
20260507021955 15 232 3.2 8.0 0.00 0.61 0.61 92 1004.5
20260507021745 15 209 3.2 9.7 0.00 0.61 0.61 92 1004.4
20260507021543 15 231 3.2 9.7 0.00 0.61 0.61 92 1004.4
20260507021335 15 227 3.2 9.7 0.00 0.61 0.61 92 1004.4
20260507021130 15 214 3.2 9.7 0.00 0.61 0.61 92 1004.5
20260507020920 15 216 3.2 9.7 0.00 0.61 0.61 92 1004.5
20260507020710 15 220 4.8 12.9 0.00 0.61 0.61 92 1004.5
20260507020509 15 223 3.2 12.9 0.00 0.61 0.61 92 1004.5
20260507020259 15 225 3.2 12.9 0.00 0.61 0.61 92 1004.5
20260507020059 15 202 4.8 12.9 0.00 0.61 0.61 92 1004.6
20260507015853 15 205 4.8 12.9 0.00 0.61 0.61 92 1004.6
20260507015645 15 217 4.8 12.9 0.00 0.61 0.61 92 1004.6
20260507015438 15 229 4.8 12.9 0.00 0.61 0.61 92 1004.6
20260507015239 15 207 4.8 12.9 0.00 0.61 0.61 92 1004.7
20260507015038 15 227 4.8 12.9 0.00 0.61 0.61 92 1004.7
20260507014828 15 223 4.8 8.0 0.00 0.61 0.61 93 1004.7
20260507014510 15 238 3.2 8.0 0.00 0.61 0.61 93 1004.7
20260507014311 15 242 3.2 8.0 0.00 0.61 0.61 93 1004.8
20260507014103 15 210 3.2 8.0 0.00 0.61 0.61 93 1004.7
20260507013855 15 234 3.2 8.0 0.00 0.61 0.61 93 1004.8
20260507013648 15 219 3.2 8.0 0.00 0.61 0.61 93 1004.8
20260507013334 15 216 3.2 8.0 0.00 0.61 0.61 93 1004.8
20260507013127 15 221 3.2 8.0 0.00 0.61 0.61 93 1004.8
20260507012920 15 247 3.2 8.0 0.00 0.61 0.61 93 1004.7
20260507012712 15 226 3.2 8.0 0.00 0.61 0.61 93 1004.7
20260507012510 15 246 3.2 8.0 0.00 0.61 0.61 93 1004.7
20260507012310 15 221 3.2 11.3 0.00 0.61 0.61 93 1004.8
20260507012110 15 232 3.2 11.3 0.00 0.61 0.61 93 1004.8
20260507011911 15 229 3.2 11.3 0.00 0.61 0.61 93 1004.7
20260507011712 15 210 3.2 11.3 0.00 0.61 0.61 93 1004.7
20260507011348 15 210 4.8 16.1 0.00 0.61 0.61 93 1004.8
20260507011141 15 190 4.8 16.1 0.00 0.61 0.61 93 1004.8
20260507010933 15 234 3.2 16.1 0.00 0.61 0.61 93 1004.9
20260507010617 15 214 3.2 16.1 0.00 0.61 0.61 93 1004.8
20260507010413 15 222 4.8 16.1 0.00 0.61 0.61 93 1004.8
20260507010206 15 217 4.8 16.1 0.00 0.61 0.61 93 1004.9
20260507005957 15 219 4.8 16.1 0.00 0.61 0.61 93 1004.9
20260507005758 15 219 4.8 16.1 0.00 0.61 0.61 93 1004.9
20260507005551 15 217 3.2 16.1 0.00 0.61 0.61 93 1004.9
20260507005344 15 163 3.2 14.5 0.00 0.61 0.61 93 1004.9
20260507005136 15 214 3.2 11.3 0.00 0.61 0.61 93 1004.8
20260507004927 15 180 3.2 11.3 0.00 0.61 0.61 93 1004.8
20260507004612 15 246 3.2 11.3 0.00 0.61 0.61 93 1004.8
20260507004405 15 225 3.2 11.3 0.00 0.61 0.61 93 1004.8
20260507004200 15 221 3.2 11.3 0.00 0.61 0.61 93 1004.7
20260507003950 15 219 4.8 11.3 0.00 0.61 0.61 93 1004.8
20260507003746 15 233 3.2 11.3 0.00 0.61 0.61 93 1004.8
20260507003539 15 200 3.2 11.3 0.00 0.61 0.61 93 1004.8
20260507003218 15 235 3.2 9.7 0.00 0.61 0.61 93 1004.8
20260507003015 15 242 3.2 9.7 0.00 0.61 0.61 93 1004.7
20260507002816 15 250 3.2 14.5 0.00 0.61 0.61 93 1004.7
20260507002606 15 237 4.8 14.5 0.00 0.61 0.61 93 1004.7
20260507002249 15 174 4.8 14.5 0.00 0.61 0.61 93 1004.7
20260507002042 15 230 3.2 14.5 0.00 0.61 0.61 93 1004.7
20260507001836 15 235 3.2 14.5 0.00 0.61 0.61 93 1004.7
20260507001633 15 227 3.2 16.1 0.00 0.61 0.61 93 1004.8
20260507001429 15 223 3.2 16.1 0.00 0.61 0.61 93 1004.7
20260507001104 15 244 3.2 16.1 0.00 0.61 0.61 93 1004.6
20260507000857 15 248 3.2 16.1 0.00 0.61 0.61 93 1004.6
20260507000646 15 233 3.2 16.1 0.00 0.61 0.61 93 1004.6
20260507000446 15 233 4.8 16.1 0.00 0.61 0.61 93 1004.6
20260507000237 15 219 3.2 16.1 0.00 0.61 0.61 93 1004.5
20260507000026 15 216 3.2 16.1 0.10 0.61 0.61 93 1004.6
20260506235818 15 150 3.2 11.3 0.10 0.61 0.61 93 1004.5
20260506235612 15 250 3.2 11.3 0.13 0.61 0.61 93 1004.5
20260506235404 15 273 3.2 12.9 0.15 0.61 0.61 93 1004.4
20260506235049 15 240 3.2 12.9 0.15 0.61 0.61 93 1004.4
20260506234842 15 238 3.2 12.9 0.15 0.61 0.61 93 1004.4
20260506234642 15 178 3.2 12.9 0.15 0.61 0.61 93 1004.4
20260506234433 15 225 3.2 12.9 0.15 0.58 0.61 93 1004.5
20260506234227 15 222 3.2 12.9 0.20 0.58 0.58 93 1004.5
20260506234020 15 223 3.2 12.9 0.25 0.58 0.58 93 1004.5
20260506233815 15 250 3.2 12.9 0.33 0.58 0.58 93 1004.6
20260506233613 15 234 4.8 12.9 0.33 0.53 0.58 93 1004.5
20260506233258 15 233 4.8 12.9 0.10 0.53 0.53 93 1004.5
20260506233059 15 229 4.8 12.9 0.10 0.53 0.53 93 1004.5
20260506232850 15 242 4.8 16.1 0.13 0.53 0.53 93 1004.6
20260506232651 15 223 4.8 16.1 0.15 0.53 0.53 93 1004.5
20260506232446 15 223 4.8 16.1 0.15 0.53 0.53 92 1004.6
20260506232243 15 222 4.8 16.1 0.15 0.53 0.53 92 1004.6
20260506231926 15 240 4.8 19.3 0.15 0.53 0.53 92 1004.6
20260506231726 15 218 4.8 19.3 0.15 0.53 0.53 92 1004.7
20260506231526 15 177 4.8 19.3 0.00 0.48 0.51 92 1004.7
20260506231317 15 229 4.8 19.3 0.00 0.48 0.51 92 1004.8
20260506231114 15 224 4.8 19.3 0.00 0.48 0.51 92 1004.8
20260506230910 15 228 4.8 19.3 0.00 0.48 0.51 92 1004.8
20260506230710 15 167 4.8 19.3 0.00 0.48 0.48 92 1004.8
20260506230501 15 180 4.8 19.3 0.00 0.48 0.48 92 1004.7
20260506230258 15 225 4.8 19.3 0.00 0.48 0.48 92 1004.7
20260506230057 15 206 4.8 17.7 0.00 0.48 0.48 92 1004.7
20260506225741 15 238 4.8 17.7 0.00 0.48 0.48 92 1004.7
20260506225540 15 242 4.8 17.7 0.00 0.48 0.48 92 1004.7
20260506225335 15 228 4.8 17.7 0.00 0.48 0.48 92 1004.7
20260506225133 15 200 6.4 17.7 0.00 0.48 0.48 92 1004.7
20260506224928 15 225 4.8 17.7 0.10 0.46 0.46 92 1004.8
20260506224602 15 219 4.8 17.7 0.10 0.46 0.46 92 1004.8
20260506224356 15 229 4.8 17.7 0.10 0.46 0.46 92 1004.8
20260506224146 15 223 3.2 11.3 0.10 0.46 0.46 92 1004.8
20260506223826 15 239 3.2 11.3 0.10 0.46 0.46 92 1004.9
20260506223504 15 217 3.2 11.3 0.10 0.46 0.46 92 1004.9
20260506223254 15 232 3.2 11.3 0.10 0.41 0.46 92 1004.9
20260506223056 15 222 4.8 12.9 0.13 0.41 0.43 92 1004.9
20260506222741 15 240 4.8 12.9 0.15 0.41 0.43 92 1004.9
20260506222539 15 240 4.8 12.9 0.23 0.41 0.43 92 1004.9
20260506222338 15 225 4.8 12.9 0.30 0.41 0.43 92 1005.0
20260506222135 15 220 4.8 12.9 0.33 0.41 0.43 92 1005.0
20260506221925 15 220 4.8 14.5 0.33 0.41 0.43 92 1005.1
20260506221725 15 234 4.8 14.5 0.00 0.41 0.41 92 1005.1
20260506221521 15 223 4.8 14.5 0.00 0.41 0.41 92 1005.1
20260506221319 15 196 4.8 14.5 0.00 0.36 0.38 91 1005.1
20260506221115 15 234 4.8 14.5 0.00 0.36 0.38 91 1005.2
20260506220906 15 184 4.8 20.9 0.00 0.36 0.38 91 1005.2
20260506220702 15 221 3.2 20.9 0.00 0.36 0.38 91 1005.2
20260506220344 15 246 3.2 20.9 0.00 0.36 0.38 91 1005.3
20260506220141 16 224 3.2 20.9 0.00 0.36 0.38 91 1005.2
20260506215935 16 224 4.8 20.9 0.00 0.36 0.38 91 1005.1
20260506215733 16 211 4.8 20.9 0.00 0.36 0.38 91 1005.2
20260506215530 16 237 4.8 20.9 0.10 0.36 0.38 91 1005.2
20260506215331 16 226 4.8 20.9 0.13 0.36 0.38 91 1005.3
20260506215010 16 240 4.8 19.3 0.13 0.36 0.38 91 1005.3
20260506214806 16 202 4.8 19.3 0.13 0.36 0.38 91 1005.4
20260506214559 16 240 4.8 19.3 0.13 0.36 0.38 91 1005.4
20260506214354 16 197 4.8 19.3 0.13 0.36 0.38 91 1005.4
20260506214147 16 213 4.8 12.9 0.13 0.36 0.38 91 1005.4
20260506213944 16 230 4.8 11.3 0.10 0.33 0.33 91 1005.4
20260506213626 16 215 4.8 22.5 0.10 0.33 0.33 91 1005.3
20260506213416 16 230 4.8 22.5 0.10 0.33 0.33 90 1005.4
20260506213054 16 196 4.8 22.5 0.10 0.33 0.33 90 1005.4
20260506212848 16 240 4.8 22.5 0.10 0.33 0.33 90 1005.4
20260506212645 16 233 6.4 22.5 0.10 0.33 0.33 90 1005.5
20260506212445 16 204 6.4 22.5 0.13 0.33 0.33 90 1005.6
20260506212238 16 212 6.4 22.5 0.15 0.33 0.33 90 1005.6
20260506212035 16 267 6.4 22.5 0.15 0.33 0.33 90 1005.7
20260506211835 16 229 6.4 22.5 0.15 0.33 0.33 90 1005.6
20260506211629 16 250 4.8 14.5 0.15 0.33 0.33 91 1005.6
20260506211423 16 244 4.8 14.5 0.15 0.33 0.33 91 1005.7
20260506211221 16 230 4.8 14.5 0.10 0.30 0.30 91 1005.7
20260506210905 16 215 3.2 12.9 0.10 0.30 0.30 91 1005.7
20260506210706 16 247 3.2 11.3 0.10 0.30 0.30 91 1005.7
20260506210505 16 240 1.6 11.3 0.10 0.30 0.30 91 1005.8
20260506210301 16 206 1.6 8.0 0.13 0.25 0.25 91 1005.7
20260506210100 16 242 1.6 6.4 0.13 0.25 0.25 91 1005.8
20260506205856 16 252 1.6 6.4 0.15 0.25 0.25 91 1005.7
20260506205657 16 260 1.6 6.4 0.15 0.25 0.25 91 1005.7
20260506205342 16 213 1.6 16.1 0.15 0.25 0.25 90 1005.8
20260506205141 16 204 1.6 16.1 0.15 0.25 0.25 91 1005.8
20260506204939 16 202 1.6 16.1 0.15 0.23 0.25 90 1005.8
20260506204731 16 202 1.6 16.1 0.15 0.23 0.25 90 1005.8
20260506204524 16 202 3.2 16.1 0.15 0.23 0.25 90 1005.8
20260506204319 16 223 3.2 16.1 0.15 0.23 0.25 90 1005.7
20260506203958 16 237 3.2 16.1 0.15 0.23 0.25 89 1005.7
20260506203753 16 228 3.2 16.1 0.15 0.23 0.23 89 1005.7
20260506203544 16 221 3.2 16.1 0.20 0.23 0.23 89 1005.8
20260506203344 16 218 3.2 12.9 0.25 0.23 0.23 89 1005.8
20260506203138 16 234 3.2 14.5 0.30 0.23 0.23 88 1005.8
20260506202930 16 236 4.8 14.5 0.30 0.23 0.23 88 1005.8
20260506202723 16 227 3.2 14.5 0.23 0.20 0.20 88 1005.8
20260506202518 16 249 4.8 14.5 0.23 0.20 0.20 88 1005.8
20260506202309 17 227 4.8 20.9 0.25 0.15 0.15 87 1005.8
20260506202109 17 223 4.8 20.9 0.38 0.15 0.15 87 1005.8
20260506201859 17 209 4.8 20.9 0.79 0.15 0.15 87 1005.7
20260506201656 17 233 4.8 20.9 0.10 0.15 0.15 87 1005.8
20260506201446 17 214 4.8 20.9 0.10 0.10 0.13 86 1005.8
20260506201131 17 234 4.8 20.9 0.13 0.10 0.13 86 1005.7
20260506200929 17 233 4.8 20.9 0.13 0.10 0.13 86 1005.7
20260506200613 17 216 3.2 20.9 0.13 0.10 0.13 86 1005.7
20260506200412 17 262 3.2 20.9 0.13 0.10 0.13 85 1005.5
20260506200208 17 188 1.6 11.3 0.13 0.10 0.13 86 1005.6
20260506195847 17 178 0.0 11.3 0.13 0.10 0.10 85 1005.6
20260506195637 17 267 0.0 11.3 0.13 0.10 0.10 84 1005.6
20260506195436 17 196 1.6 11.3 0.13 0.10 0.10 85 1005.6
20260506195229 17 196 1.6 11.3 0.13 0.10 0.10 84 1005.7
20260506195030 18 190 1.6 11.3 0.13 0.10 0.10 83 1005.7
20260506194825 18 190 1.6 11.3 0.13 0.08 0.10 83 1005.8
20260506194618 18 190 1.6 11.3 0.13 0.08 0.08 82 1005.7
20260506194414 18 254 1.6 11.3 0.15 0.08 0.08 82 1005.7
20260506194214 18 225 1.6 9.7 0.20 0.08 0.08 81 1005.7
20260506194011 18 197 0.0 9.7 0.20 0.08 0.08 80 1005.7
20260506193801 19 197 0.0 9.7 0.20 0.08 0.08 78 1005.8
20260506193442 19 183 0.0 9.7 0.10 0.05 0.05 81 1005.8
20260506193239 19 175 0.0 4.8 0.10 0.05 0.05 81 1005.9
20260506192922 20 120 0.0 4.8 0.10 0.03 0.05 80 1006.1
20260506192557 20 120 0.0 4.8 0.00 0.03 0.03 81 1006.0
20260506192350 20 120 0.0 3.2 0.00 0.03 0.03 80 1006.0
20260506192141 20 120 0.0 3.2 0.00 0.03 0.03 79 1006.0
20260506191938 20 120 0.0 3.2 0.00 0.03 0.03 79 1005.9
20260506191731 20 120 0.0 3.2 0.00 0.03 0.03 77 1006.0
20260506191526 20 120 0.0 3.2 0.00 0.03 0.03 76 1006.0
20260506191320 20 222 0.0 0.0 0.00 0.03 0.03 74 1005.9
20260506191113 20 222 1.6 4.8 0.00 0.00 0.00 73 1006.0
20260506190753 20 222 1.6 4.8 0.00 0.00 0.00 71 1006.0
20260506190549 20 222 1.6 4.8 0.00 0.00 0.00 70 1005.9
20260506190350 20 232 0.0 8.0 0.00 0.00 0.00 73 1005.9
20260506190145 20 175 0.0 8.0 0.00 0.00 0.00 72 1005.8
20260506185938 20 175 0.0 8.0 0.00 0.00 0.00 72 1005.8
20260506185737 20 245 1.6 8.0 0.00 0.00 0.00 72 1005.8
20260506185533 20 244 1.6 8.0 0.00 0.00 0.00 71 1005.8
20260506185330 20 234 1.6 8.0 0.00 0.00 0.00 71 1005.8
20260506185131 20 234 1.6 8.0 0.00 0.00 0.00 71 1005.8
20260506184928 20 234 3.2 8.0 0.00 0.00 0.00 70 1005.8
20260506184605 20 180 3.2 22.5 0.00 0.00 0.00 69 1005.7
20260506184242 21 183 3.2 22.5 0.00 0.00 0.00 69 1005.7
20260506184037 21 227 3.2 22.5 0.00 0.00 0.00 69 1005.7
20260506183837 21 219 3.2 22.5 0.00 0.00 0.00 67 1005.7
20260506183633 21 229 3.2 22.5 0.00 0.00 0.00 66 1005.7
20260506183429 21 235 4.8 22.5 0.00 0.00 0.00 65 1005.7
20260506183220 21 225 4.8 22.5 0.00 0.00 0.00 64 1005.6
20260506183021 21 242 6.4 22.5 0.00 0.00 0.00 66 1005.6
20260506182811 21 254 6.4 22.5 0.00 0.00 0.00 66 1005.6
20260506182602 21 223 6.4 22.5 0.00 0.00 0.00 63 1005.6
20260506182359 21 263 4.8 12.9 0.00 0.00 0.00 65 1005.7
20260506182200 21 249 4.8 19.3 0.00 0.00 0.00 64 1005.7
20260506182001 22 239 4.8 19.3 0.00 0.00 0.00 63 1005.8
20260506181641 22 259 4.8 19.3 0.00 0.00 0.00 60 1005.8
20260506181437 22 237 4.8 19.3 0.00 0.00 0.00 60 1005.7
20260506181232 22 230 6.4 20.9 0.00 0.00 0.00 59 1005.8
20260506181030 22 202 6.4 20.9 0.00 0.00 0.00 58 1005.8
20260506180820 22 221 6.4 20.9 0.00 0.00 0.00 60 1005.8
20260506180614 22 230 6.4 20.9 0.00 0.00 0.00 58 1005.8
20260506180408 22 196 4.8 20.9 0.00 0.00 0.00 59 1005.8
20260506180159 22 206 4.8 20.9 0.00 0.00 0.00 57 1005.9
20260506175954 22 224 4.8 20.9 0.00 0.00 0.00 58 1005.9
20260506175753 22 256 4.8 20.9 0.00 0.00 0.00 59 1006.0
20260506175553 22 176 4.8 20.9 0.00 0.00 0.00 58 1005.9
20260506175239 22 232 4.8 17.7 0.00 0.00 0.00 59 1005.8
20260506175032 22 248 6.4 17.7 0.00 0.00 0.00 59 1005.9
20260506174826 22 201 6.4 19.3 0.00 0.00 0.00 59 1005.9
20260506174617 22 238 6.4 19.3 0.00 0.00 0.00 60 1005.9
20260506174413 22 163 6.4 19.3 0.00 0.00 0.00 59 1005.9
20260506174212 22 238 6.4 19.3 0.00 0.00 0.00 59 1005.9
20260506174013 22 197 6.4 19.3 0.00 0.00 0.00 58 1005.9
20260506173803 22 227 6.4 24.1 0.00 0.00 0.00 58 1006.0
20260506173556 22 198 6.4 24.1 0.00 0.00 0.00 58 1006.0
20260506173350 22 223 6.4 24.1 0.00 0.00 0.00 57 1005.9
20260506173146 23 52 6.4 24.1 0.00 0.00 0.00 57 1005.8
20260506172943 23 177 6.4 25.7 0.00 0.00 0.00 56 1006.0
20260506172736 23 209 6.4 25.7 0.00 0.00 0.00 56 1006.1
20260506172535 23 184 6.4 25.7 0.00 0.00 0.00 55 1005.9
20260506172327 23 223 6.4 25.7 0.00 0.00 0.00 55 1006.1
20260506172003 23 153 8.0 25.7 0.00 0.00 0.00 53 1006.0
20260506171758 23 229 8.0 25.7 0.00 0.00 0.00 55 1006.0
20260506171557 23 240 8.0 25.7 0.00 0.00 0.00 55 1006.1
20260506171353 23 232 6.4 25.7 0.00 0.00 0.00 55 1006.1
20260506171143 23 213 4.8 25.7 0.00 0.00 0.00 56 1006.3
20260506170943 22 184 4.8 19.3 0.00 0.00 0.00 56 1006.3
20260506170737 22 165 4.8 16.1 0.00 0.00 0.00 58 1006.4
20260506170422 22 203 4.8 16.1 0.00 0.00 0.00 58 1006.3
20260506170106 22 245 6.4 16.1 0.00 0.00 0.00 58 1006.4
20260506165907 22 174 6.4 16.1 0.00 0.00 0.00 57 1006.3
20260506165706 22 157 4.8 16.1 0.00 0.00 0.00 58 1006.3
20260506165503 22 212 6.4 17.7 0.00 0.00 0.00 58 1006.4
20260506165305 22 234 6.4 17.7 0.00 0.00 0.00 59 1006.4
20260506165101 22 227 4.8 17.7 0.00 0.00 0.00 59 1006.6
20260506164855 22 209 4.8 17.7 0.00 0.00 0.00 58 1006.5
20260506164655 22 234 6.4 17.7 0.00 0.00 0.00 59 1006.6
20260506164335 22 237 6.4 17.7 0.00 0.00 0.00 58 1006.6
20260506164018 22 220 6.4 17.7 0.00 0.00 0.00 59 1006.7
20260506163817 22 199 6.4 17.7 0.00 0.00 0.00 58 1006.7
20260506163616 22 180 6.4 16.1 0.00 0.00 0.00 59 1006.8
20260506163407 22 224 6.4 16.1 0.00 0.00 0.00 59 1006.8
20260506163206 22 241 6.4 16.1 0.00 0.00 0.00 59 1006.8
20260506163004 22 231 6.4 16.1 0.00 0.00 0.00 59 1006.8
20260506162803 22 194 6.4 16.1 0.00 0.00 0.00 59 1006.9
20260506162558 22 223 6.4 16.1 0.00 0.00 0.00 60 1006.9
20260506162350 22 252 6.4 16.1 0.00 0.00 0.00 59 1007.0
20260506162149 22 229 6.4 16.1 0.00 0.00 0.00 59 1007.0
20260506161948 22 207 6.4 20.9 0.00 0.00 0.00 59 1007.0
20260506161744 22 250 6.4 20.9 0.00 0.00 0.00 59 1007.1
20260506161542 22 209 6.4 20.9 0.00 0.00 0.00 60 1007.2
20260506161224 22 219 6.4 20.9 0.00 0.00 0.00 61 1007.3
20260506161021 22 143 6.4 20.9 0.00 0.00 0.00 60 1007.3
20260506160817 22 228 6.4 20.9 0.00 0.00 0.00 60 1007.3
20260506160453 22 242 4.8 20.9 0.00 0.00 0.00 60 1007.4
20260506160248 22 201 6.4 20.9 0.00 0.00 0.00 61 1007.5
20260506160044 22 226 6.4 20.9 0.00 0.00 0.00 61 1007.5
20260506155838 22 229 6.4 20.9 0.00 0.00 0.00 60 1007.6
20260506155636 22 242 6.4 20.9 0.00 0.00 0.00 60 1007.5
20260506155434 22 231 6.4 20.9 0.00 0.00 0.00 60 1007.5
20260506155234 22 212 6.4 20.9 0.00 0.00 0.00 60 1007.6
20260506155023 22 251 6.4 20.9 0.00 0.00 0.00 60 1007.7
20260506154706 22 213 6.4 20.9 0.00 0.00 0.00 61 1007.7
20260506154458 22 225 8.0 20.9 0.00 0.00 0.00 61 1007.8
20260506154249 21 245 8.0 24.1 0.00 0.00 0.00 61 1007.9
20260506153927 21 200 8.0 24.1 0.00 0.00 0.00 61 1007.9
20260506153724 21 202 8.0 24.1 0.00 0.00 0.00 61 1007.9
20260506153515 22 221 8.0 24.1 0.00 0.00 0.00 61 1007.9
20260506153307 22 206 8.0 24.1 0.00 0.00 0.00 60 1008.0
20260506153102 22 245 8.0 29.0 0.00 0.00 0.00 60 1007.9
20260506152853 22 145 8.0 29.0 0.00 0.00 0.00 61 1008.0
20260506152650 21 262 8.0 29.0 0.00 0.00 0.00 61 1008.1
20260506152332 21 244 8.0 29.0 0.00 0.00 0.00 61 1008.0
20260506152127 21 228 8.0 29.0 0.00 0.00 0.00 61 1007.9
20260506151918 21 234 9.7 29.0 0.00 0.00 0.00 61 1007.9
20260506151716 21 240 9.7 29.0 0.00 0.00 0.00 61 1007.9
20260506151515 21 232 9.7 29.0 0.00 0.00 0.00 61 1007.9
20260506151305 21 239 9.7 29.0 0.00 0.00 0.00 61 1007.9
20260506151058 21 223 8.0 20.9 0.00 0.00 0.00 61 1008.0
20260506150857 21 234 6.4 16.1 0.00 0.00 0.00 61 1008.1
20260506150652 21 246 6.4 14.5 0.00 0.00 0.00 62 1008.2
20260506150447 21 218 6.4 14.5 0.00 0.00 0.00 61 1008.3
20260506150237 21 222 6.4 14.5 0.00 0.00 0.00 62 1008.2
20260506150032 21 236 6.4 14.5 0.00 0.00 0.00 61 1008.2
20260506145830 21 224 6.4 14.5 0.00 0.00 0.00 61 1008.1
20260506145516 21 222 6.4 14.5 0.00 0.00 0.00 62 1008.0
20260506145308 21 260 6.4 14.5 0.00 0.00 0.00 62 1008.1
20260506144944 21 222 6.4 14.5 0.00 0.00 0.00 62 1008.1
20260506144737 21 244 6.4 14.5 0.00 0.00 0.00 63 1007.9
20260506144535 21 223 4.8 14.5 0.00 0.00 0.00 64 1007.9
20260506144334 21 235 6.4 14.5 0.00 0.00 0.00 64 1008.0
20260506144134 21 246 6.4 14.5 0.00 0.00 0.00 63 1008.0
20260506143820 21 209 6.4 17.7 0.00 0.00 0.00 63 1008.0
20260506143500 21 262 6.4 17.7 0.00 0.00 0.00 63 1008.0
20260506143255 21 225 6.4 17.7 0.00 0.00 0.00 64 1008.0
20260506143051 21 207 6.4 17.7 0.00 0.00 0.00 64 1007.9
20260506142731 21 227 8.0 25.7 0.00 0.00 0.00 65 1007.8
20260506142527 21 233 8.0 25.7 0.00 0.00 0.00 66 1007.8
20260506142319 21 229 8.0 25.7 0.00 0.00 0.00 65 1007.7
20260506142110 20 240 8.0 25.7 0.00 0.00 0.00 65 1007.7
20260506141902 20 244 9.7 25.7 0.00 0.00 0.00 65 1007.7
20260506141655 20 211 9.7 25.7 0.00 0.00 0.00 66 1007.8
20260506141452 20 254 8.0 25.7 0.00 0.00 0.00 66 1008.0
20260506141247 20 244 8.0 25.7 0.00 0.00 0.00 66 1007.9
20260506141039 20 231 8.0 25.7 0.00 0.00 0.00 67 1007.9
20260506140837 20 215 6.4 19.3 0.00 0.00 0.00 67 1007.9
20260506140637 20 231 6.4 19.3 0.00 0.00 0.00 67 1007.9
20260506140429 20 229 6.4 19.3 0.00 0.00 0.00 67 1007.8
20260506140222 20 185 6.4 14.5 0.00 0.00 0.00 68 1007.9
20260506140015 20 248 4.8 14.5 0.00 0.00 0.00 68 1007.9
20260506135805 20 227 4.8 14.5 0.00 0.00 0.00 68 1008.0
20260506135555 20 176 4.8 14.5 0.00 0.00 0.00 68 1008.0
20260506135236 20 264 4.8 12.9 0.00 0.00 0.00 68 1008.1
20260506135030 20 229 4.8 12.9 0.00 0.00 0.00 68 1008.1
20260506134829 19 242 4.8 12.9 0.00 0.00 0.00 69 1008.1
20260506134625 19 212 6.4 12.9 0.00 0.00 0.00 68 1008.2
20260506134420 19 243 4.8 12.9 0.00 0.00 0.00 68 1008.3
20260506134215 19 223 4.8 14.5 0.00 0.00 0.00 69 1008.3
20260506134006 19 231 4.8 14.5 0.00 0.00 0.00 68 1008.3
20260506133800 19 186 4.8 14.5 0.00 0.00 0.00 69 1008.4
20260506133556 19 256 4.8 14.5 0.00 0.00 0.00 69 1008.4
20260506133357 19 229 4.8 19.3 0.00 0.00 0.00 69 1008.5
20260506133033 19 250 4.8 19.3 0.00 0.00 0.00 69 1008.5
20260506132833 19 232 6.4 19.3 0.00 0.00 0.00 69 1008.4
20260506132630 19 230 6.4 19.3 0.00 0.00 0.00 69 1008.4
20260506132428 19 230 6.4 19.3 0.00 0.00 0.00 69 1008.3
20260506132109 19 240 6.4 19.3 0.00 0.00 0.00 69 1008.3
20260506131857 19 240 6.4 19.3 0.00 0.00 0.00 69 1008.2
20260506131652 19 236 6.4 19.3 0.00 0.00 0.00 70 1008.2
20260506131448 19 233 6.4 19.3 0.00 0.00 0.00 69 1008.2
20260506131240 19 212 6.4 19.3 0.00 0.00 0.00 70 1008.3
20260506131030 19 231 6.4 19.3 0.00 0.00 0.00 70 1008.3
20260506130825 19 235 6.4 19.3 0.00 0.00 0.00 70 1008.5
20260506130624 19 255 6.4 19.3 0.00 0.00 0.00 70 1008.5
20260506130423 19 225 6.4 19.3 0.00 0.00 0.00 70 1008.5
20260506130218 18 206 6.4 19.3 0.00 0.00 0.00 69 1008.5
20260506125902 19 225 6.4 19.3 0.00 0.00 0.00 69 1008.4
20260506125701 19 224 6.4 19.3 0.00 0.00 0.00 69 1008.4
20260506125458 19 225 4.8 19.3 0.00 0.00 0.00 69 1008.3
20260506125259 19 231 4.8 12.9 0.00 0.00 0.00 69 1008.3
20260506124942 19 253 4.8 12.9 0.00 0.00 0.00 69 1008.2
20260506124741 19 216 3.2 12.9 0.00 0.00 0.00 70 1008.2
20260506124537 19 219 4.8 12.9 0.00 0.00 0.00 70 1008.2
20260506124212 18 239 4.8 12.9 0.00 0.00 0.00 71 1008.3
20260506124004 18 248 4.8 12.9 0.00 0.00 0.00 70 1008.4
20260506123645 18 204 4.8 12.9 0.00 0.00 0.00 71 1008.5
20260506123442 18 215 4.8 12.9 0.00 0.00 0.00 70 1008.6
20260506123126 18 230 6.4 12.9 0.00 0.00 0.00 70 1008.6
20260506122920 18 234 6.4 17.7 0.00 0.00 0.00 70 1008.5
20260506122712 18 184 6.4 17.7 0.00 0.00 0.00 70 1008.6
20260506122513 18 239 6.4 17.7 0.00 0.00 0.00 71 1008.6
20260506122307 18 230 6.4 17.7 0.00 0.00 0.00 71 1008.6
20260506122102 18 238 6.4 17.7 0.00 0.00 0.00 71 1008.5
20260506121902 18 243 6.4 17.7 0.00 0.00 0.00 72 1008.5
20260506121653 18 226 6.4 17.7 0.00 0.00 0.00 72 1008.4
20260506121445 18 230 6.4 17.7 0.00 0.00 0.00 72 1008.4
20260506121245 18 215 6.4 17.7 0.00 0.00 0.00 72 1008.4
20260506121037 18 221 6.4 17.7 0.00 0.00 0.00 72 1008.4
20260506120828 18 231 6.4 12.9 0.00 0.00 0.00 72 1008.6
20260506120512 18 231 6.4 12.9 0.00 0.00 0.00 72 1008.7
20260506120148 18 230 6.4 12.9 0.00 0.00 0.00 72 1008.7
20260506115949 18 231 4.8 12.9 0.00 0.00 0.00 72 1008.6
20260506115634 18 226 4.8 12.9 0.00 0.00 0.00 72 1008.7
20260506115433 18 241 4.8 16.1 0.00 0.00 0.00 72 1008.7
20260506115113 18 217 4.8 16.1 0.00 0.00 0.00 72 1008.7
20260506114908 18 234 4.8 16.1 0.00 0.00 0.00 72 1008.8
20260506114545 18 252 8.0 17.7 0.00 0.00 0.00 72 1008.8
20260506114220 18 213 8.0 17.7 0.00 0.00 0.00 71 1008.9
20260506114017 18 243 6.4 17.7 0.00 0.00 0.00 72 1008.9
20260506113651 17 238 6.4 17.7 0.00 0.00 0.00 71 1008.9
20260506113445 18 194 4.8 24.1 0.00 0.00 0.00 71 1008.9
20260506113246 18 232 4.8 24.1 0.00 0.00 0.00 71 1008.9
20260506113043 18 270 4.8 24.1 0.00 0.00 0.00 72 1008.9
20260506112841 17 236 4.8 24.1 0.00 0.00 0.00 72 1008.9
20260506112637 17 188 4.8 24.1 0.00 0.00 0.00 72 1008.8
20260506112435 17 238 4.8 24.1 0.00 0.00 0.00 72 1008.8
20260506112121 17 220 4.8 24.1 0.00 0.00 0.00 72 1008.8
20260506111916 17 238 4.8 24.1 0.00 0.00 0.00 72 1008.8
20260506111713 17 204 4.8 24.1 0.00 0.00 0.00 72 1008.7
20260506111513 17 198 4.8 14.5 0.00 0.00 0.00 72 1008.7
20260506111314 17 221 4.8 14.5 0.00 0.00 0.00 73 1008.8
20260506111108 17 202 4.8 14.5 0.00 0.00 0.00 72 1008.8
20260506110907 17 208 4.8 14.5 0.00 0.00 0.00 72 1008.8
20260506110705 17 221 4.8 14.5 0.00 0.00 0.00 73 1008.9
20260506110455 17 225 3.2 12.9 0.00 0.00 0.00 73 1009.0
20260506110245 17 244 4.8 12.9 0.00 0.00 0.00 73 1009.0
20260506110040 17 235 4.8 12.9 0.00 0.00 0.00 73 1009.0
20260506105839 17 232 3.2 12.9 0.00 0.00 0.00 73 1009.0
20260506105636 17 221 4.8 12.9 0.00 0.00 0.00 73 1009.0
20260506105432 17 241 4.8 12.9 0.00 0.00 0.00 73 1008.9
20260506105108 17 246 3.2 12.9 0.00 0.00 0.00 73 1008.9
20260506104901 17 242 4.8 12.9 0.00 0.00 0.00 73 1008.8
20260506104657 17 229 4.8 12.9 0.00 0.00 0.00 73 1008.9
20260506104455 17 228 4.8 12.9 0.00 0.00 0.00 73 1008.8
20260506104253 17 234 4.8 12.9 0.00 0.00 0.00 73 1008.8
20260506104050 17 236 4.8 12.9 0.00 0.00 0.00 73 1008.8
20260506103725 17 238 4.8 12.9 0.00 0.00 0.00 73 1008.8
20260506103522 17 245 4.8 12.9 0.00 0.00 0.00 73 1008.8
20260506103315 17 245 4.8 12.9 0.00 0.00 0.00 73 1008.9
20260506103110 17 284 4.8 9.7 0.00 0.00 0.00 73 1008.9
20260506102907 17 248 3.2 9.7 0.00 0.00 0.00 73 1008.9
20260506102658 17 222 4.8 9.7 0.00 0.00 0.00 73 1008.8
20260506102450 17 233 4.8 19.3 0.00 0.00 0.00 73 1008.8
20260506102130 17 233 3.2 19.3 0.00 0.00 0.00 73 1008.8
20260506101929 17 235 3.2 19.3 0.00 0.00 0.00 73 1008.9
20260506101730 17 218 3.2 19.3 0.00 0.00 0.00 73 1008.9
20260506101526 17 216 3.2 19.3 0.00 0.00 0.00 73 1008.9
20260506101210 17 238 3.2 19.3 0.00 0.00 0.00 73 1009.0
20260506101008 17 229 4.8 19.3 0.00 0.00 0.00 73 1009.0
20260506100802 17 240 4.8 19.3 0.00 0.00 0.00 73 1009.0
20260506100553 17 240 4.8 19.3 0.00 0.00 0.00 73 1008.9
20260506100351 17 212 3.2 11.3 0.00 0.00 0.00 73 1008.8
20260506100143 17 232 3.2 11.3 0.00 0.00 0.00 73 1008.8
20260506095933 17 254 3.2 11.3 0.00 0.00 0.00 73 1008.9
20260506095733 17 269 3.2 11.3 0.00 0.00 0.00 73 1008.8
20260506095531 17 235 3.2 11.3 0.00 0.00 0.00 73 1008.8
20260506095213 16 236 3.2 11.3 0.00 0.00 0.00 73 1008.8
20260506095011 16 183 3.2 11.3 0.00 0.00 0.00 73 1008.6
20260506094646 16 232 3.2 11.3 0.00 0.00 0.00 73 1008.8
20260506094436 16 227 3.2 6.4 0.00 0.00 0.00 73 1008.8
20260506094231 16 257 3.2 6.4 0.00 0.00 0.00 73 1008.9
20260506094023 16 243 3.2 6.4 0.00 0.00 0.00 73 1008.9
20260506093814 16 215 3.2 6.4 0.00 0.00 0.00 73 1008.9
20260506093604 16 215 3.2 6.4 0.00 0.00 0.00 73 1008.9
20260506093403 17 246 3.2 8.0 0.00 0.00 0.00 72 1008.9
20260506093155 17 232 3.2 8.0 0.00 0.00 0.00 72 1008.9
20260506092947 17 240 3.2 8.0 0.00 0.00 0.00 72 1008.9
20260506092746 17 224 4.8 8.0 0.00 0.00 0.00 72 1008.8
20260506092546 17 261 4.8 8.0 0.00 0.00 0.00 72 1008.8
20260506092229 17 226 4.8 12.9 0.00 0.00 0.00 72 1008.8
20260506091905 17 220 4.8 12.9 0.00 0.00 0.00 72 1008.8
20260506091705 17 225 4.8 12.9 0.00 0.00 0.00 72 1008.8
20260506091501 17 247 4.8 12.9 0.00 0.00 0.00 72 1008.8
20260506091251 17 213 4.8 12.9 0.00 0.00 0.00 72 1008.8
20260506090930 17 225 4.8 12.9 0.00 0.00 0.00 71 1008.6
20260506090610 17 215 6.4 12.9 0.00 0.00 0.00 71 1008.6
20260506090409 17 223 6.4 11.3 0.00 0.00 0.00 71 1008.7
20260506090203 17 234 4.8 11.3 0.00 0.00 0.00 71 1008.6
20260506090002 17 210 4.8 11.3 0.00 0.00 0.00 71 1008.7
20260506085756 17 237 4.8 11.3 0.00 0.00 0.00 71 1008.6
20260506085555 17 217 4.8 11.3 0.00 0.00 0.00 71 1008.7
20260506085234 17 221 4.8 19.3 0.00 0.00 0.00 71 1008.7
20260506084908 17 209 4.8 19.3 0.00 0.00 0.00 70 1008.8
20260506084706 17 244 4.8 19.3 0.00 0.00 0.00 70 1008.7
20260506084503 17 229 6.4 19.3 0.00 0.00 0.00 70 1008.7
20260506084256 17 244 6.4 19.3 0.00 0.00 0.00 70 1008.6
20260506084056 17 245 4.8 19.3 0.00 0.00 0.00 70 1008.6
20260506083853 17 229 6.4 19.3 0.00 0.00 0.00 70 1008.6
20260506083652 17 205 6.4 19.3 0.00 0.00 0.00 70 1008.6
20260506083442 17 246 4.8 19.3 0.00 0.00 0.00 70 1008.6
20260506083236 17 234 4.8 11.3 0.00 0.00 0.00 70 1008.6
20260506083027 17 236 4.8 11.3 0.00 0.00 0.00 70 1008.7
20260506082821 17 221 3.2 11.3 0.00 0.00 0.00 69 1008.7
20260506082615 17 228 3.2 11.3 0.00 0.00 0.00 69 1008.7
20260506082408 17 241 4.8 11.3 0.00 0.00 0.00 69 1008.6
20260506082207 17 211 4.8 11.3 0.00 0.00 0.00 69 1008.7
20260506082007 17 242 4.8 11.3 0.00 0.00 0.00 69 1008.6
20260506081806 17 225 4.8 12.9 0.00 0.00 0.00 69 1008.6
20260506081601 17 207 4.8 12.9 0.00 0.00 0.00 69 1008.7
20260506081351 17 257 4.8 12.9 0.00 0.00 0.00 69 1008.6
20260506081145 17 254 4.8 12.9 0.00 0.00 0.00 69 1008.6
20260506080937 17 242 4.8 12.9 0.00 0.00 0.00 69 1008.6
20260506080727 17 235 4.8 12.9 0.00 0.00 0.00 68 1008.6
20260506080520 17 247 4.8 12.9 0.00 0.00 0.00 68 1008.5
20260506080316 17 220 4.8 12.9 0.00 0.00 0.00 68 1008.5
20260506080106 17 240 4.8 12.9 0.00 0.00 0.00 68 1008.5